SB KEPS @ AMSAT $ORB10133.O Orbital Elements 10133.OSCAR
HR AMSAT ORBITAL ELEMENTS FOR OSCAR SATELLITES FROM WA5QGD FORT WORTH,TX May 13, 2010 Send Subscribe/unsubscribe to KEPS at http://www.amsat.org/mailman/listinfo/keps BID: ORB10133.O TO ALL RADIO AMATEURS BT
Satellite: AO-07 Catalog number: 07530 Epoch time: 10133.64655901 Element set: 775 Inclination: 101.4012 deg RA of node: 150.8523 deg Eccentricity: 0.0011827 Arg of perigee: 343.5302 deg Mean anomaly: 016.5381 deg Mean motion: 12.53578285 rev/day Decay rate: -2.7e-07 rev/day^2 Epoch rev: 62412 Checksum: 263
Satellite: FO-29 Catalog number: 24278 Epoch time: 10132.90279403 Element set: 309 Inclination: 098.5151 deg RA of node: 326.9115 deg Eccentricity: 0.0349898 Arg of perigee: 215.3189 deg Mean anomaly: 142.4317 deg Mean motion: 13.52950407 rev/day Decay rate: 6.1e-07 rev/day^2 Epoch rev: 67833 Checksum: 316
Satellite: SO-33 Catalog number: 25509 Epoch time: 10133.66159030 Element set: 710 Inclination: 031.4344 deg RA of node: 343.7549 deg Eccentricity: 0.0353753 Arg of perigee: 347.9036 deg Mean anomaly: 011.3279 deg Mean motion: 14.28303445 rev/day Decay rate: 1.02e-06 rev/day^2 Epoch rev: 60311 Checksum: 266
Satellite: RS-22 Catalog number: 27939 Epoch time: 10133.66335301 Element set: 177 Inclination: 097.8977 deg RA of node: 000.6074 deg Eccentricity: 0.0013737 Arg of perigee: 164.2548 deg Mean anomaly: 195.9085 deg Mean motion: 14.63415449 rev/day Decay rate: 6.2e-07 rev/day^2 Epoch rev: 35390 Checksum: 316
Satellite: VO-52 Catalog number: 28650 Epoch time: 10133.55845565 Element set: 502 Inclination: 097.6948 deg RA of node: 188.3384 deg Eccentricity: 0.0027820 Arg of perigee: 032.2863 deg Mean anomaly: 328.0036 deg Mean motion: 14.81741746 rev/day Decay rate: -5.5e-07 rev/day^2 Epoch rev: 27156 Checksum: 315
Satellite: SO-67 Catalog number: 35870 Epoch time: 10133.71649988 Element set: 722 Inclination: 097.3353 deg RA of node: 183.7583 deg Eccentricity: 0.0002110 Arg of perigee: 190.9354 deg Mean anomaly: 316.8456 deg Mean motion: 15.20878269 rev/day Decay rate: 7.52e-06 rev/day^2 Epoch rev: 3621 Checksum: 324
Satellite: HO-68 Catalog number: 36122 Epoch time: 10133.66447253 Element set: 299 Inclination: 100.4716 deg RA of node: 194.4401 deg Eccentricity: 0.0007975 Arg of perigee: 055.6074 deg Mean anomaly: 304.5799 deg Mean motion: 13.16280584 rev/day Decay rate: -4.5e-07 rev/day^2 Epoch rev: 1967 Checksum: 309
/EX SB KEPS @ AMSAT $ORB10133.D Orbital Elements 10133.MICROS
HR AMSAT ORBITAL ELEMENTS FOR THE MICROSATS FROM WA5QGD FORT WORTH,TX May 13, 2010 Send Subscribe/unsubscribe to KEPS at http://www.amsat.org/mailman/listinfo/keps BID: ORB10133.D TO ALL RADIO AMATEURS BT
Satellite: UO-11 Catalog number: 14781 Epoch time: 10132.72599957 Element set: 0238 Inclination: 098.0581 deg RA of node: 184.3539 deg Eccentricity: 0.0009157 Arg of perigee: 000.3783 deg Mean anomaly: 359.7423 deg Mean motion: 14.79800777 rev/day Decay rate: 2.79e-06 rev/day^2 Epoch rev: 40656 Checksum: 335
Satellite: AO-16 Catalog number: 20439 Epoch time: 10132.55043987 Element set: 0894 Inclination: 098.3295 deg RA of node: 091.8652 deg Eccentricity: 0.0009936 Arg of perigee: 273.5718 deg Mean anomaly: 086.4323 deg Mean motion: 14.31860547 rev/day Decay rate: 4.1e-07 rev/day^2 Epoch rev: 06028 Checksum: 318
Satellite: LO-19 Catalog number: 20442 Epoch time: 10132.76349331 Element set: 0804 Inclination: 098.2888 deg RA of node: 098.0152 deg Eccentricity: 0.0010910 Arg of perigee: 267.3655 deg Mean anomaly: 092.6266 deg Mean motion: 14.32092464 rev/day Decay rate: 7.6e-07 rev/day^2 Epoch rev: 06048 Checksum: 298
Satellite: AO-27 Catalog number: 22825 Epoch time: 10132.59088719 Element set: 0528 Inclination: 098.4834 deg RA of node: 081.4660 deg Eccentricity: 0.0008708 Arg of perigee: 020.7392 deg Mean anomaly: 339.4134 deg Mean motion: 14.29296494 rev/day Decay rate: -9.0e-08 rev/day^2 Epoch rev: 86696 Checksum: 338
Satellite: IO-26 Catalog number: 22826 Epoch time: 10132.52272939 Element set: 0266 Inclination: 098.4776 deg RA of node: 082.0149 deg Eccentricity: 0.0009346 Arg of perigee: 015.4925 deg Mean anomaly: 344.6541 deg Mean motion: 14.29552551 rev/day Decay rate: 3.6e-07 rev/day^2 Epoch rev: 86706 Checksum: 314
Satellite: GO-32 Catalog number: 25397 Epoch time: 10133.65126307 Element set: 184 Inclination: 098.3118 deg RA of node: 143.0035 deg Eccentricity: 0.0001794 Arg of perigee: 045.4659 deg Mean anomaly: 314.6676 deg Mean motion: 14.23176779 rev/day Decay rate: -1.40e-06 rev/day^2 Epoch rev: 61513 Checksum: 294
Satellite: NO-44 Catalog number: 26931 Epoch time: 10132.73406181 Element set: 0458 Inclination: 067.0526 deg RA of node: 295.3169 deg Eccentricity: 0.0005672 Arg of perigee: 261.4914 deg Mean anomaly: 098.5526 deg Mean motion: 14.29597784 rev/day Decay rate: 2.82e-06 rev/day^2 Epoch rev: 44968 Checksum: 335
Satellite: SO-50 Catalog number: 27607 Epoch time: 10132.46565068 Element set: 0173 Inclination: 064.5557 deg RA of node: 105.0149 deg Eccentricity: 0.0034424 Arg of perigee: 093.7356 deg Mean anomaly: 266.7680 deg Mean motion: 14.71536971 rev/day Decay rate: 6.5e-07 rev/day^2 Epoch rev: 39712 Checksum: 310
Satellite: CO-55 Catalog number: 27844 Epoch time: 10132.59984214 Element set: 844 Inclination: 098.7092 deg RA of node: 142.0848 deg Eccentricity: 0.0009035 Arg of perigee: 277.5184 deg Mean anomaly: 082.4968 deg Mean motion: 14.20705830 rev/day Decay rate: 9.7e-07 rev/day^2 Epoch rev: 35603 Checksum: 324
Satellite: CO-57 Catalog number: 27848 Epoch time: 10132.55379706 Element set: 0795 Inclination: 098.7137 deg RA of node: 141.1278 deg Eccentricity: 0.0008877 Arg of perigee: 281.7074 deg Mean anomaly: 078.3119 deg Mean motion: 14.20498496 rev/day Decay rate: 8.5e-07 rev/day^2 Epoch rev: 35598 Checksum: 359
Satellite: AO-51 Catalog number: 28375 Epoch time: 10132.58924750 Element set: 0675 Inclination: 098.0614 deg RA of node: 128.1158 deg Eccentricity: 0.0082905 Arg of perigee: 205.0977 deg Mean anomaly: 154.6175 deg Mean motion: 14.40683652 rev/day Decay rate: 3.8e-07 rev/day^2 Epoch rev: 30838 Checksum: 316
Satellite: GENESAT1 Catalog number: 29655 Epoch time: 10133.73244621 Element set: 53 Inclination: 040.0172 deg RA of node: 252.7515 deg Eccentricity: 0.0006732 Arg of perigee: 058.0158 deg Mean anomaly: 302.1317 deg Mean motion: 15.87138739 rev/day Decay rate: 9.4518e-04 rev/day^2 Epoch rev: 19450 Checksum: 281
Satellite: CP3 Catalog number: 31129 Epoch time: 10133.76616855 Element set: 575 Inclination: 097.9414 deg RA of node: 175.1717 deg Eccentricity: 0.0102015 Arg of perigee: 341.5107 deg Mean anomaly: 018.2391 deg Mean motion: 14.52252583 rev/day Decay rate: 2.04e-06 rev/day^2 Epoch rev: 16286 Checksum: 280
Satellite: CO-65 Catalog number: 32785 Epoch time: 10133.65520364 Element set: 679 Inclination: 097.8982 deg RA of node: 199.0546 deg Eccentricity: 0.0015754 Arg of perigee: 040.7734 deg Mean anomaly: 319.4668 deg Mean motion: 14.81647046 rev/day Decay rate: -1.03e-06 rev/day^2 Epoch rev: 11037 Checksum: 326
Satellite: KKS-1 Catalog number: 33493 Epoch time: 10133.72947331 Element set: 477 Inclination: 098.0818 deg RA of node: 252.9344 deg Eccentricity: 0.0018721 Arg of perigee: 251.9986 deg Mean anomaly: 107.9188 deg Mean motion: 14.80978536 rev/day Decay rate: 5.98e-06 rev/day^2 Epoch rev: 7038 Checksum: 342
Satellite: SOHLA-1 Catalog number: 33496 Epoch time: 10133.77469135 Element set: 101 Inclination: 098.0545 deg RA of node: 243.3001 deg Eccentricity: 0.0005807 Arg of perigee: 320.7801 deg Mean anomaly: 039.2979 deg Mean motion: 14.69492100 rev/day Decay rate: 7.3e-07 rev/day^2 Epoch rev: 6982 Checksum: 284
/EX SB KEPS @ AMSAT $ORB10133.W Orbital Elements 10133.WEATHER
HR AMSAT ORBITAL ELEMENTS FOR WEATHER SATELLITES FROM WA5QGD FORT WORTH,TX May 13, 2010 Send Subscribe/unsubscribe to KEPS at http://www.amsat.org/mailman/listinfo/keps BID: ORB10133.W TO ALL RADIO AMATEURS BT
Satellite: NOAA-10 Catalog number: 16969 Epoch time: 10133.38515050 Element set: 63 Inclination: 098.6593 deg RA of node: 162.6759 deg Eccentricity: 0.0011418 Arg of perigee: 316.9943 deg Mean anomaly: 043.0350 deg Mean motion: 14.27416206 rev/day Decay rate: 8.9e-07 rev/day^2 Epoch rev: 23061 Checksum: 290
Satellite: NOAA-11 Catalog number: 19531 Epoch time: 10133.23654547 Element set: 76 Inclination: 098.7683 deg RA of node: 222.8544 deg Eccentricity: 0.0010669 Arg of perigee: 246.7274 deg Mean anomaly: 113.2806 deg Mean motion: 14.14924799 rev/day Decay rate: 4.3e-07 rev/day^2 Epoch rev: 11619 Checksum: 307
Satellite: NOAA-12 Catalog number: 21263 Epoch time: 10133.32930896 Element set: 562 Inclination: 098.7657 deg RA of node: 146.4931 deg Eccentricity: 0.0011338 Arg of perigee: 268.7642 deg Mean anomaly: 091.2239 deg Mean motion: 14.25632516 rev/day Decay rate: 5.9e-07 rev/day^2 Epoch rev: 98743 Checksum: 316
Satellite: MET-3/5 Catalog number: 21655 Epoch time: 10133.69038660 Element set: 810 Inclination: 082.5547 deg RA of node: 333.0131 deg Eccentricity: 0.0014755 Arg of perigee: 076.5733 deg Mean anomaly: 283.7053 deg Mean motion: 13.17020843 rev/day Decay rate: 5.1e-07 rev/day^2 Epoch rev: 90113 Checksum: 268
Satellite: MET-2/21 Catalog number: 22782 Epoch time: 10132.85793405 Element set: 773 Inclination: 082.5449 deg RA of node: 280.4689 deg Eccentricity: 0.0023352 Arg of perigee: 138.8167 deg Mean anomaly: 221.4767 deg Mean motion: 13.83644555 rev/day Decay rate: 5.0e-07 rev/day^2 Epoch rev: 84319 Checksum: 323
Satellite: OKEAN-4 Catalog number: 23317 Epoch time: 10133.70407662 Element set: 230 Inclination: 082.5421 deg RA of node: 026.0466 deg Eccentricity: 0.0022404 Arg of perigee: 000.4322 deg Mean anomaly: 359.6897 deg Mean motion: 14.82814530 rev/day Decay rate: 2.11e-06 rev/day^2 Epoch rev: 84134 Checksum: 251
